SCP
0 0 0 0 0 0 0 0 0 0 0 0 0 0 0 0 0 0 0 0 0 0 0 0 0 0 0 0 0 0 0 0 0 0 0 0 0 0 0 0 0 0 0 0
0 0 0 0 0 0 0 0 0 0 0 0 0 0 0 0 0 0 0 0 0 0 0 0 0 0 0 0 0 0 0 0 0 0 0 0 0 0 0 0 0 0 0 0
0 0 0 0 0 0 0 0 0 0 0 0 0 0 0 0 0 0 0 0 0 0 0 0 0 0 0 0 0 0 0 0 0 0 0 0 0 0 0 0 0 0 0 0
0 0 0 0 0 0 0 0 0 0 0 0 0 0 0 0 0 0 0 0 0 0 0 0 0 0 0 0 0 0 0 0 0 0 0 0 0 0 0 0 0 0 0 0
0 0 0 0 0 0 0 0 0 0 0 0 0 0 0 0 0 0 0 0 0 0 0 0 0 0 0 0 0 0 0 0 0 0 0 0 0 0 0 0 0 0 0 0
0 0 0 0 0 0 0 0 0 0 0 0 0 0 0 0 0 0 0 0 0 0 0 0 0 0 0 0 0 0 0 0 0 0 0 0 0 0 0 0 0 0 0 0
0 0 0 0 0 0 0 0 0 0 0 0 0 0 0 0 0 0 0 0 0 0 0 0 0 0 0 0 0 0 0 0 0 0 0 0 0 0 0 0 0 0 0 0
0 0 0 0 0 0 0 0 0 0 0 0 0 0 0 0 0 0 0 0 0 0 0 0 0 0 0 0 0 0 0 0 0 0 0 0 0 0 0 0 0 0 0 0
0 0 0 0 0 0 0 0 0 0 0 0 0 0 0 0 0 0 0 0 0 0 0 0 0 0 0 0 0 0 0 0 0 0 0 0 0 0 0 0 0 0 0 0
0 0 0 0 0 0 0 0 0 0 0 0 0 0 0 0 0 0 0 0 0 0 0 0 0 0 0 0 0 0 0 0 0 0 0 0 0 0 0 0 0 0 0 0
0 0 0 0 0 0 0 0 0 0 0 0 0 0 0 0 0 0 0 0 0 0 0 0 0 0 0 0 0 0 0 0 0 0 0 0 0 0 0 0 0 0 0 0
0 0 0 0 0 0 0 0 0 0 0 0 0 0 0 0 0 0 0 0 0 0 0 0 0 0 0 0 0 0 0 0 0 0 0 0 0 0 0 0 0 0 0 0
0 0 0 0 0 0 0 0 0 0 0 0 0 0 0 0 0 0 0 0 0 0 0 0 0 0 0 0 0 0 0 0 0 0 0 0 0 0 0 0 0 0 0 0
0 0 0 0 0 0 0 0 0 0 0 0 0 0 0 0 0 0 0 0 0 0 0 0 0 0 0 0 0 0 0 0 0 0 0 0 0 0 0 0 0 0 0 0
0 0 0 0 0 0 0 0 0 0 0 0 0 0 0 0 0 0 0 0 0 0 0 0 0 0 0 0 0 0 0 0 0 0 0 0 0 0 0 0 0 0 0 0
0 0 0 0 0 0 0 0 0 0 0 0 0 0 0 0 0 0 0 0 0 0 0 0 0 0 0 0 0 0 0 0 0 0 0 0 0 0 0 0 0 0 0 0
0 0 0 0 0 0 0 0 0 0 0 0 0 0 0 0 0 0 0 0 0 0 0 0 0 0 0 0 0 0 0 0 0 0 0 0 0 0 0 0 0 0 0 0
0 0 0 0 0 0 0 0 0 0 0 0 0 0 0 0 0 0 0 0 0 0 0 0 0 0 0 0 0 0 0 0 0 0 0 0 0 0 0 0 0 0 0 0
0 0 0 0 0 0 0 0 0 0 0 0 0 0 0 0 0 0 0 0 0 0 0 0 0 0 0 0 0 0 0 0 0 0 0 0 0 0 0 0 0 0 0 0
0 0 0 0 0 0 0 0 0 0 0 0 0 0 0 0 0 0 0 0 0 0 0 0 0 0 0 0 0 0 0 0 0 0 0 0 0 0 0 0 0 0 0 0
0 0 0 0 0 0 0 0 0 0 0 0 0 0 0 0 0 0 0 0 0 0 0 0 0 0 0 0 0 0 0 0 0 0 0 0 0 0 0 0 0 0 0 0
0 0 0 0 0 0 0 0 0 0 0 0 0 0 0 0 0 0 0 0 0 0 0 0 0 0 0 0 0 0 0 0 0 0 0 0 0 0 0 0 0 0 0 0
0 0 0 0 0 0 0 0 0 0 0 0 0 0 0 0 0 0 0 0 0 0 0 0 0 0 0 0 0 0 0 0 0 0 0 0 0 0 0 0 0 0 0 0
0 0 0 0 0 0 0 0 0 0 0 0 0 0 0 0 0 0 0 0 0 0 0 0 0 0 0 0 0 0 0 0 0 0 0 0 0 0 0 0 0 0 0 0
0 0 0 0 0 0 0 0 0 0 0 0 0 0 0 0 0 0 0 0 0 0 0 0 0 0 0 0 0 0 0 0 0 0 0 0 0 0 0 0 0 0 0 0
0 0 0 0 0 0 0 0 0 0 0 0 0 0 0 0 0 0 0 0 0 0 0 0 0 0 0 0 0 0 0 0 0 0 0 0 0 0 0 0 0 0 0 0
0 0 0 0 0 0 0 0 0 0 0 0 0 0 0 0 0 0 0 0 0 0 0 0 0 0 0 0 0 0 0 0 0 0 0 0 0 0 0 0 0 0 0 0
Wind_Speed
4 3 3 5 7 7 8 8 9 9 9 12 8 7 6 5 4 4 4 4 4 4 4 4 4 4 4 4 4 2 1 1 1 1 1 1 2 1 1 2 2 2 2 2
3 2 2 5 8 9 9 8 9 8 12 9 7 4 5 5 4 5 5 5 5 5 4 4 4 4 4 4 4 2 1 1 0 1 1 1 1 1 1 2 2 2 1 2
3 2 2 7 9 10 7 7 8 11 11 4 5 6 6 6 5 6 6 6 5 5 5 4 4 4 4 4 4 3 2 2 1 1 1 1 1 1 1 1 2 2 1 1
1 1 7 7 2 6 7 7 8 7 6 5 6 7 6 5 5 6 5 5 5 4 4 4 3 3 3 3 3 2 2 2 1 0 0 0 1 1 1 1 1 1 1 1
2 2 8 7 3 4 5 7 7 9 8 6 4 4 5 5 5 5 5 5 4 4 3 3 3 3 2 2 2 2 3 3 2 1 1 1 1 1 1 1 1 1 1 1
3 3 8 6 2 2 2 6 4 6 6 4 1 2 6 4 3 4 4 3 3 3 2 2 2 2 1 2 2 2 3 3 2 1 1 1 1 1 1 1 1 0 1 1
4 5 10 6 2 3 4 7 2 4 5 4 5 7 5 4 4 3 3 3 2 1 1 2 2 1 1 2 3 3 3 2 2 2 1 1 1 1 0 1 0 1 1 1
5 5 11 3 5 7 7 3 2 3 4 5 5 5 4 4 4 3 3 3 2 1 2 2 2 1 2 3 3 2 2 2 3 2 2 1 1 0 0 1 1 1 1 1
9 9 4 5 6 5 2 3 4 3 4 4 4 5 4 4 4 3 3 3 2 1 2 2 2 2 3 3 2 2 2 2 2 2 1 1 1 1 1 1 1 1 1 1
5 8 6 6 5 4 4 5 5 4 4 3 5 5 5 4 4 3 3 3 2 1 2 3 3 3 3 3 2 2 2 2 2 1 1 1 1 1 1 2 2 1 1 2
7 7 5 6 6 6 5 5 5 4 4 4 5 5 5 5 4 4 3 3 2 2 3 4 3 3 3 2 2 2 2 2 2 1 1 1 1 1 2 2 3 3 3 2
9 7 6 7 5 5 5 6 6 5 5 4 4 6 5 5 4 3 3 3 2 3 3 4 3 3 3 2 1 1 2 2 1 1 1 1 1 2 2 2 4 4 5 4
7 5 5 6 5 4 5 6 5 5 5 5 4 4 4 4 3 3 3 3 4 4 4 3 3 4 4 3 2 2 2 2 2 1 2 1 1 1 2 2 2 3 4 4
5 3 4 5 5 4 4 4 3 3 4 4 4 3 3 3 3 3 4 4 4 3 3 3 3 4 4 3 2 2 2 3 2 2 2 2 2 2 2 2 2 2 3 4
5 5 5 4 3 3 2 2 2 4 4 4 3 3 3 3 4 4 4 3 3 3 3 3 3 4 3 2 2 2 2 2 2 2 2 2 2 2 2 2 2 2 2 2
3 3 3 3 4 4 3 3 3 5 4 4 4 4 4 4 4 4 3 2 2 4 4 4 4 4 3 2 2 2 2 3 3 2 2 2 2 2 2 2 2 2 2 2
3 4 4 4 5 5 4 5 5 5 4 4 5 4 3 2 3 3 3 3 3 4 4 4 4 3 3 2 2 2 2 2 3 2 2 2 2 3 2 2 2 2 2 3
6 6 6 6 5 5 5 4 4 5 5 5 4 3 3 3 4 4 4 2 2 3 3 3 3 3 2 2 2 2 2 2 2 2 2 2 2 2 2 2 2 2 2 2
3 4 4 4 4 5 5 5 4 4 4 3 3 4 4 4 4 4 2 2 3 4 4 3 4 2 2 3 2 2 2 2 2 2 2 3 2 2 2 2 2 2 2 2
2 3 3 3 3 3 4 4 3 3 3 3 3 3 3 3 3 2 2 3 4 3 3 3 2 2 3 3 3 1 2 2 2 2 2 2 2 2 2 2 2 2 2 2
3 3 3 3 3 3 3 2 2 3 3 2 3 3 4 3 2 2 2 3 4 3 3 3 2 2 3 2 2 1 1 2 2 2 2 2 2 2 1 2 2 2 2 2
3 3 3 2 2 3 3 2 2 3 3 2 3 3 2 2 2 2 3 3 3 4 2 2 2 3 3 1 1 1 1 2 2 2 1 2 2 2 2 2 2 2 2 2
3 2 2 2 3 3 3 2 2 2 2 3 3 3 2 2 2 2 3 2 2 3 2 2 3 4 2 0 1 1 1 2 2 2 2 2 2 2 2 2 2 2 2 2
2 2 2 2 1 2 3 3 2 2 2 2 2 2 2 2 2 2 2 3 4 3 1 3 4 3 1 0 0 1 1 1 2 2 2 2 2 2 2 2 2 2 2 3
2 2 2 2 2 2 2 2 2 2 2 2 2 2 2 2 2 2 2 2 3 3 1 2 3 2 1 0 1 1 1 1 2 1 1 1 1 2 2 2 2 2 2 2
2 2 2 2 2 2 1 1 1 1 1 2 2 2 1 1 1 1 1 1 2 2 1 1 1 2 1 0 1 1 1 1 1 1 1 1 1 1 2 2 2 2 2 2
2 2 1 2 1 1 1 1 1 2 1 1 2 2 1 1 1 1 1 1 1 1 1 1 1 1 1 0 0 1 1 1 1 1 1 1 1 1 2 2 2 2 2 2
Wind_Direction
259 249 198 225 226 205 204 207 214 241 245 263 272 275 281 284 294 301 297 299 301 302 308 316 323 327 327 323 323 316 304 298 262 207 155 140 131 129 133 138 141 147 152 143
280 256 227 256 241 220 225 227 236 257 266 263 271 276 278 278 282 289 291 291 294 297 303 307 312 316 322 324 320 323 317 292 269 127 120 125 132 126 129 135 133 139 145 154
256 289 353 262 227 203 207 211 201 228 247 268 278 274 268 271 272 274 280 283 283 281 279 285 292 301 306 309 318 329 330 330 344 135 141 152 151 135 148 155 149 156 152 167
195 73 235 248 198 192 207 233 217 234 256 252 253 269 269 254 253 267 275 279 279 277 280 284 288 300 306 317 327 330 328 326 331 12 177 164 149 170 180 161 173 181 178 193
156 226 272 284 235 182 197 257 223 228 251 264 282 314 287 257 247 251 259 269 270 268 271 281 291 300 317 329 336 333 323 317 314 294 236 201 184 221 214 171 204 208 197 198
159 199 243 256 245 183 131 274 240 208 232 245 121 298 278 287 283 279 282 282 279 280 283 283 292 302 312 308 310 303 302 306 312 308 267 242 235 242 253 197 217 229 230 230
196 229 260 255 227 124 172 249 253 202 217 207 208 229 259 292 297 290 290 289 285 279 278 275 282 282 281 295 290 293 302 311 316 313 282 242 233 242 210 193 190 224 238 256
173 214 250 204 147 186 222 258 238 231 226 225 239 258 271 282 287 297 305 306 299 292 292 292 286 267 274 281 290 305 307 309 309 310 300 276 186 236 223 177 188 234 233 264
197 218 247 186 204 228 231 249 258 251 254 243 254 265 272 278 284 291 287 289 288 275 291 297 288 263 265 284 299 306 305 303 305 310 307 273 217 209 217 208 211 236 236 247
248 260 260 252 254 258 246 247 263 262 260 245 249 262 268 271 277 282 284 280 276 276 283 291 295 289 274 289 297 290 291 297 301 307 314 315 288 233 217 214 221 232 242 255
255 273 291 270 246 247 253 258 269 271 253 241 244 260 260 264 265 264 275 276 262 256 267 279 292 295 295 292 282 277 278 284 295 299 298 304 295 265 250 240 227 231 238 239
234 229 219 251 255 245 245 254 256 260 269 262 239 251 260 260 259 259 267 271 267 262 265 276 285 289 294 289 265 256 275 277 272 275 282 284 293 314 294 264 265 261 257 259
237 239 232 259 268 253 245 254 257 250 252 265 263 249 250 260 262 259 262 260 255 257 258 266 273 281 287 284 264 246 252 260 260 262 262 265 269 277 303 321 295 280 272 270
235 231 253 252 254 258 255 261 264 268 264 259 261 258 250 259 266 262 260 261 258 256 256 258 263 273 281 279 268 263 259 259 257 250 251 254 257 257 258 268 292 305 300 289
233 222 234 256 269 273 270 271 277 279 280 283 267 254 247 250 260 265 267 268 265 257 258 257 261 272 284 275 268 265 264 260 258 253 249 251 253 250 253 259 266 281 299 301
242 241 237 245 255 262 261 250 251 265 271 272 270 265 256 250 257 265 266 252 243 253 255 254 258 265 271 264 269 270 265 269 272 257 249 250 249 243 243 244 252 258 268 277
208 237 240 250 256 262 254 246 243 254 262 262 263 269 271 270 271 270 269 257 248 253 254 250 257 265 261 253 251 256 262 263 271 265 249 243 241 236 232 232 237 248 261 270
222 232 235 240 249 259 267 260 250 254 256 259 266 266 260 253 257 266 272 277 279 282 272 260 260 263 257 253 249 245 247 250 249 250 256 252 247 234 227 229 235 245 260 270
244 249 255 258 253 251 258 262 260 259 261 259 255 255 255 255 256 262 265 259 261 272 278 272 271 268 261 258 265 233 240 253 261 262 263 263 265 243 231 231 236 241 248 257
263 265 268 275 276 262 262 265 264 268 264 251 249 258 266 266 260 257 252 253 251 255 266 269 264 258 258 257 267 233 238 247 254 263 268 263 259 253 241 238 239 241 245 250
284 282 282 286 292 292 281 272 267 273 280 259 243 250 262 273 270 256 251 269 275 265 261 264 260 259 259 259 260 235 236 246 250 251 255 258 262 263 261 256 254 253 252 253
291 286 289 292 295 300 301 292 272 271 277 272 262 257 262 273 276 273 256 252 267 275 273 249 257 267 277 273 221 230 241 248 253 253 249 251 251 254 259 260 259 261 261 259
288 286 290 291 287 291 303 298 280 271 267 267 264 259 255 257 251 256 277 271 266 276 278 253 274 283 298 270 215 228 237 242 250 253 253 251 249 249 254 258 260 261 262 263
296 300 297 293 290 293 299 301 298 285 271 272 266 256 249 263 279 263 264 281 292 296 283 275 286 296 338 87 233 242 246 250 254 257 258 257 255 254 255 256 261 262 260 261
301 299 300 303 295 280 282 300 315 312 307 300 294 285 262 240 244 269 283 282 295 315 312 300 309 326 351 289 260 259 260 258 255 252 249 261 268 268 266 262 261 264 267 266
305 299 291 280 272 276 281 284 291 295 300 308 312 308 307 303 277 275 286 289 290 316 329 321 324 329 328 290 270 272 274 289 303 299 283 279 278 279 280 281 280 275 271 269
318 312 311 317 311 292 279 275 277 284 282 278 290 296 306 316 316 315 311 311 321 333 336 338 335 328 324 313 305 306 305 301 294 289 288 287 281 278 283 285 286 284 281 277